This demonstration page uses our WeatherBlox Daily Observations layout. Learn more.

Left ArrowRight Arrow

36.17497, -115.13722

Hourly Observations for May 25, 2017

Temp ( °F °C ) Dew Point ( °F °C ) Humidity (%) Winds ( mph kmh ) Pressure ( in mb ) Visibility ( mi km ) Precip ( " mm )
12:53 am 00:53 Clear 84 28.9 34 1.1 17 17 W 13 20 29.47 998 10 16 0.00 0.00
1:53 am 01:53 Clear 82 27.8 32 0 16 16 SW 9 15 29.48 998 10 16 0.00 0.00
2:53 am 02:53 Clear 80 26.7 31 -0.6 17 17 SSW 14 22 29.45 997 10 16 0.00 0.00
3:53 am 03:53 Clear 77 25 33 0.6 20 20 N 6 9 29.47 998 10 16 0.00 0.00
4:53 am 04:53 Clear 75 23.9 33 0.6 22 22 NNW 6 9 29.49 999 10 16 0.00 0.00
5:53 am 05:53 Sunny 74 23.3 33 0.6 22 22 Calm 29.50 999 10 16 0.00 0.00
6:53 am 06:53 Sunny 77 25 33 0.6 20 20 Calm 29.52 1000 10 16 0.00 0.00
7:53 am 07:53 Sunny 80 26.7 30 -1.1 16 16 SE 7 11 29.53 1000 10 16 0.00 0.00
8:53 am 08:53 Sunny 84 28.9 29 -1.7 13 13 ESE 7 11 29.53 1000 10 16 0.00 0.00
9:53 am 09:53 Sunny 87 30.6 28 -2.2 12 12 VRB 7 11 29.53 1000 10 16 0.00 0.00
10:53 am 10:53 Sunny 89 31.7 28 -2.2 11 11 ESE 5 7 29.52 1000 10 16 0.00 0.00
11:53 am 11:53 Sunny 92 33.3 26 -3.3 9 9 ESE 12 19 29.50 999 10 16 0.00 0.00
1:11 pm 13:11 Sunny 96 35.6 20 -6.7 6 6 W 17 28 29.35 994 10 16 0.00 0.03
1:53 pm 13:53 Sunny 96 35.6 17 -8.3 5 5 WSW 28 44 29.46 998 10 16 0.00 0.03
2:53 pm 14:53 Sunny 97 36.1 14 -10 5 5 WSW 26 43 29.46 998 10 16 0.00 0.00
3:53 pm 15:53 Sunny 97 36.1 14 -10 5 5 SW 23 37 29.46 998 10 16 0.00 0.00
4:53 pm 16:53 Sunny 95 35 13 -10.6 5 5 W 22 35 29.45 997 10 16 0.00 0.00
5:53 pm 17:53 Sunny 94 34.4 14 -10 5 5 W 16 26 29.45 997 10 16 0.00 0.00
6:53 pm 18:53 Sunny 92 33.3 14 -10 5 5 SW 17 28 29.46 998 10 16 0.00 0.00
7:53 pm 19:53 Clear 90 32.2 12 -11.1 5 5 SW 18 30 29.48 998 10 16 0.00 0.00
8:53 pm 20:53 Clear 88 31.1 19 -7.2 8 8 WSW 17 28 29.50 999 10 16 0.00 0.00
9:53 pm 21:53 Clear 84 28.9 21 -6.1 10 10 S 14 22 29.53 1000 10 16 0.00 0.00
10:53 pm 22:53 Clear 82 27.8 21 -6.1 10 10 SSW 18 30 29.54 1000 10 16 0.00 0.00
11:53 pm 23:53 Clear 80 26.7 22 -5.6 11 11 SSW 13 20 29.55 1001 10 16 0.00 0.00

Powered by AerisWeather